Powrót do katalogu

STARLINK-33760

AktywnyŁącznośćVLEO
NORAD 63764·PAYLOAD·🇺🇸 United States

Wystrzelony Apr 29, 2025 z Cape Canaveral Space Force Station

Loading…

Następne Przeloty (najbliższe 24 godziny)

TLE

ŚwieżeSource: CelesTrak SupGP

Epoka: Sep 14, 2026, 21:14 UTC

1 63764C 25089P   26257.88520833  .00048776  00000+0  17667-2 0  2576
2 63764  43.0046  56.8823 0001566 276.7409 353.3086 15.27553354    19

Śledź STARLINK-33760 w czasie rzeczywistym z AllMySat

Download on the App Store